Weather in Verkhnyaya Vidlitsa

Russia / Republic of Karelia     61°11′24″N   32°28′23″E
temp.,
°C
wind,
m/s
gust,
m/s
humid.,
%
clouds,
%
prec.,
mm/h
press.,
hPa
HPBL,
m
3 august, tue
tue300:00+16ene51396100 6.9 9941003
03:00+15ese51298100 8.3 990581
06:00+16s2699100 3.9 987535
09:00+14wsw81397100 8.0 9911016
12:00+15wsw71394100 0.5 995945
15:00+18sw612784 1.3 9981314
18:00+15w511859 1.2 1000926
21:00+12w5118437 1.3 1002839
4 august, wed
wed400:00+12w51076100 0.0 10041075
03:00+12w41075100 0.1 10061041
06:00+12wsw410748 0.0 1008649
09:00+16wsw510580 0.0 1009955
12:00+18wsw610493 0.0 10111562
15:00+19wsw583913 0.0 10122502
18:00+19sw354474 0.0 10131200
21:00+13w247279 0.0 101489
5 august, thu
thu500:00+12wsw137753 0.0 101651
03:00+12nnw117799 0.0 101710
06:00+13s227282 0.0 101757
09:00+16sw1262100 0.0 1018330
12:00+20sw224374 0.0 10181867
15:00+20wsw224164 0.0 10181471
18:00+19ne124314 0.0 10181121
21:00+13e22665 0.0 101816
6 august, fri
fri600:00+11ne22768 0.0 101940
03:00+11ne257680 0.0 101998
06:00+13ne386843 0.0 1019215
09:00+16ene375792 0.0 1018389
12:00+21e453714 0.0 10182066
15:00+22ene553288 0.0 10172593
18:00+21ene45382 0.0 10161809
21:00+15ene311571 0.0 1017357
7 august, sat
sat700:00+12ene3127197 0.0 1017255
03:00+12ene31172100 0.0 1017279
06:00+13ene41370100 0.0 1017488
09:00+18e51150100 0.0 10161193
12:00+20e61040100 0.0 10151567
15:00+15e51168100 0.4 10151065
18:00+14ene51380100 0.6 1014837
21:00+15ene51468100 0.6 1014818